This is the latest recevied weather packets stored in our database for station/object DB0ADS-6. If no packets are shown the sender has not sent any weather packets the latest 1 day(s).
| Time | Temp. | Humidity | Pressure | Rain* | Wind** | Luminosity | Snow |
|---|---|---|---|---|---|---|---|
| 1778008257 | 12.22° C | 93% | 1005.1 hPa | 0 mm | 1.34 m/s, 301° | - | - |
| 1778007955 | 12.22° C | 94% | 1005.2 hPa | 0 mm | 0.45 m/s, 295° | - | - |
| 1778007653 | 12.22° C | 94% | 1005.2 hPa | 0 mm | 0.89 m/s, 289° | - | - |
| 1778007351 | 12.22° C | 93% | 1005.1 hPa | 0 mm | 0.89 m/s, 315° | - | - |
| 1778007050 | 12.22° C | 94% | 1005 hPa | 0 mm | 0.45 m/s, 308° | - | - |
| 1778006750 | 12.22° C | 94% | 1005 hPa | 0 mm | 0.45 m/s, 270° | - | - |
| 1778006445 | 12.22° C | 94% | 1005 hPa | 0 mm | 0.45 m/s, 263° | - | - |
| 1778006143 | 12.22° C | 94% | 1005 hPa | 0 mm | 0.45 m/s, 252° | - | - |
| 1778005857 | 12.22° C | 93% | 1005 hPa | 0 mm | 0.89 m/s, 278° | - | - |
| 1778005540 | 12.22° C | 93% | 1004.9 hPa | 0 mm | 0.45 m/s, 315° | - | - |
| 1778005238 | 12.78° C | 93% | 1004.9 hPa | 0 mm | 0.45 m/s, 310° | - | - |
| 1778004936 | 12.78° C | 92% | 1004.9 hPa | 0 mm | 0.89 m/s, 319° | - | - |
| 1778004634 | 12.78° C | 93% | 1004.8 hPa | 0 mm | 0.89 m/s, 315° | - | - |
| 1778004333 | 12.78° C | 93% | 1004.7 hPa | 0 mm | 0.89 m/s, 307° | - | - |
| 1778004051 | 12.78° C | 93% | 1004.7 hPa | 0 mm | 0 m/s | - | - |
| 1778003729 | 12.78° C | 93% | 1004.7 hPa | 0 mm | 0.89 m/s, 274° | - | - |
| 1778003428 | 12.78° C | 93% | 1004.6 hPa | 0 mm | 0.89 m/s, 288° | - | - |
| 1778003126 | 12.78° C | 94% | 1004.5 hPa | 0 mm | 0.45 m/s, 292° | - | - |
| 1778002824 | 12.78° C | 93% | 1004.4 hPa | 0.51 mm | 0.89 m/s, 299° | - | - |
| 1778002522 | 12.22° C | 93% | 1004.4 hPa | 1.02 mm | 1.34 m/s, 311° | - | - |
| 1778002221 | 12.22° C | 93% | 1004.4 hPa | 1.27 mm | 0.89 m/s, 307° | - | - |
| 1778001919 | 12.22° C | 93% | 1004.3 hPa | 1.52 mm | 0.89 m/s, 308° | - | - |
| 1778001617 | 12.22° C | 92% | 1004.3 hPa | 1.78 mm | 0.89 m/s, 306° | - | - |
| 1778001315 | 12.22° C | 92% | 1004.3 hPa | 2.29 mm | 0.89 m/s, 277° | - | - |
| 1778001075 | 12.22° C | 92% | 1004.2 hPa | 2.79 mm | 1.34 m/s, 301° | - | - |
* Rain latest hour (hover to see other rain measurements)
** Current wind speed in m/s (hover to see current wind gust speed)